HAZ2122 ZWWW-ZSHC

Flight info

Callsign HAZ2122
Flight time N/A
Altitude 35100
Route WUR W190 ADPET W188 DAKPA W189 AKLAS W192 ESDEX W191 DNC W565 BIGUX W214 HO H14 P396 H131 ATGEN W283 SUDGO H132 P234 H36 SNF W269 OLPOV B213 WHA R343 SAGUD W50 XSH H17 JDZ H26 TXN G204 OREXA
Aircraft A320/M-SDE3FGHIRWY/LB1

Departure

Time N/A
Airport Ürümqi Tianshan International Airport (ZWWW)

Arrival

Time 2026-05-07 16:46
Airport Hangzhou Xiaoshan International Airport (ZSHC)
Time Latitude Longitude Altitude Speed Heading
2026-05-07 14:27 37.28864 101.56448 35363 ft 523 kts 109°
2026-05-07 14:27 37.26872 101.65242 35364 ft 524 kts 109°
2026-05-07 14:28 37.24867 101.74030 35363 ft 524 kts 109°
2026-05-07 14:28 37.22840 101.82821 35374 ft 524 kts 109°
2026-05-07 14:29 37.20799 101.91616 35376 ft 525 kts 109°
2026-05-07 14:29 37.18761 102.00415 35380 ft 525 kts 110°
2026-05-07 14:30 37.16741 102.09152 35388 ft 526 kts 109°
2026-05-07 14:30 37.14682 102.18014 35389 ft 526 kts 110°
2026-05-07 14:31 37.12629 102.26749 35403 ft 526 kts 110°
2026-05-07 14:31 37.09758 102.35068 35417 ft 516 kts 127°
2026-05-07 14:32 37.05955 102.42685 35398 ft 516 kts 127°
2026-05-07 14:32 37.02150 102.50308 35421 ft 516 kts 127°
2026-05-07 14:33 36.98343 102.57927 35430 ft 517 kts 127°
2026-05-07 14:33 36.94535 102.65543 35427 ft 516 kts 127°
2026-05-07 14:34 36.90715 102.73146 35419 ft 516 kts 127°
2026-05-07 14:34 36.86887 102.80737 35410 ft 517 kts 127°
2026-05-07 14:35 36.83050 102.88325 35411 ft 517 kts 127°
2026-05-07 14:35 36.79641 102.96270 35392 ft 522 kts 120°
2026-05-07 14:36 36.76501 103.04437 35397 ft 522 kts 120°
2026-05-07 14:36 36.73877 103.11214 35375 ft 522 kts 120°
2026-05-07 14:37 36.70193 103.20665 35389 ft 521 kts 120°
2026-05-07 14:37 36.65971 103.31476 35383 ft 521 kts 120°
2026-05-07 14:38 36.62258 103.40960 35389 ft 521 kts 120°
2026-05-07 14:38 36.59081 103.49066 35390 ft 521 kts 120°
2026-05-07 14:39 36.56433 103.55801 35387 ft 521 kts 120°
2026-05-07 14:39 36.53207 103.63877 35404 ft 521 kts 122°
2026-05-07 14:40 36.49666 103.71707 35406 ft 519 kts 125°
2026-05-07 14:40 36.45922 103.79374 35401 ft 519 kts 126°
2026-05-07 14:41 36.42215 103.87064 35395 ft 519 kts 124°
2026-05-07 14:41 36.38581 103.94827 35362 ft 520 kts 124°
2026-05-07 14:42 36.34956 104.02598 35349 ft 520 kts 124°
2026-05-07 14:42 36.31306 104.10356 35351 ft 520 kts 124°
2026-05-07 14:43 36.27645 104.18090 35368 ft 521 kts 124°
2026-05-07 14:43 36.23995 104.25774 35363 ft 521 kts 124°
2026-05-07 14:44 36.20309 104.33506 35358 ft 521 kts 124°
2026-05-07 14:44 36.16624 104.41237 35360 ft 522 kts 124°
2026-05-07 14:45 36.12931 104.48974 35374 ft 522 kts 124°
2026-05-07 14:45 36.09228 104.56703 35352 ft 522 kts 125°
2026-05-07 14:46 36.05516 104.64428 35352 ft 523 kts 125°
2026-05-07 14:46 36.01802 104.72148 35354 ft 523 kts 125°
2026-05-07 14:47 35.98084 104.79870 35361 ft 523 kts 125°
2026-05-07 14:47 35.94362 104.87583 35362 ft 523 kts 125°
2026-05-07 14:48 35.90634 104.95291 35358 ft 523 kts 125°
2026-05-07 14:48 35.86890 105.02996 35365 ft 524 kts 125°
2026-05-07 14:49 35.83138 105.10694 35361 ft 524 kts 125°
2026-05-07 14:49 35.79383 105.18387 35360 ft 524 kts 125°
2026-05-07 14:50 35.75655 105.26023 35344 ft 524 kts 126°
2026-05-07 14:50 35.71899 105.33707 35351 ft 524 kts 125°
2026-05-07 14:51 35.68127 105.41391 35355 ft 525 kts 126°
2026-05-07 14:51 35.64343 105.49065 35357 ft 525 kts 126°
2026-05-07 14:52 35.60557 105.56740 35353 ft 525 kts 126°
2026-05-07 14:52 35.56771 105.64412 35347 ft 525 kts 126°
2026-05-07 14:53 35.53342 105.72347 35337 ft 531 kts 113°
2026-05-07 14:53 35.51600 105.81192 35329 ft 536 kts 101°
2026-05-07 14:54 35.50287 105.90196 35327 ft 536 kts 102°
2026-05-07 14:54 35.48942 105.99207 35336 ft 537 kts 102°
2026-05-07 14:55 35.47591 106.08228 35342 ft 538 kts 102°
2026-05-07 14:55 35.46240 106.17250 35344 ft 538 kts 102°
2026-05-07 14:56 35.44882 106.26272 35350 ft 538 kts 102°
2026-05-07 14:56 35.43524 106.35293 35355 ft 538 kts 102°
2026-05-07 14:57 35.42155 106.44320 35350 ft 539 kts 102°
2026-05-07 14:57 35.40767 106.53349 35351 ft 539 kts 102°
2026-05-07 14:58 35.39380 106.62382 35356 ft 539 kts 102°
2026-05-07 14:58 35.37993 106.71349 35350 ft 539 kts 102°
2026-05-07 14:59 35.36576 106.80440 35345 ft 540 kts 102°
2026-05-07 14:59 35.35175 106.89409 35346 ft 540 kts 102°
2026-05-07 15:00 35.33759 106.98446 35341 ft 540 kts 102°
2026-05-07 15:00 35.32332 107.07478 35350 ft 540 kts 102°
2026-05-07 15:01 35.30893 107.16509 35344 ft 541 kts 102°
2026-05-07 15:01 35.29439 107.25538 35344 ft 541 kts 102°
2026-05-07 15:02 35.27971 107.34572 35346 ft 541 kts 102°
2026-05-07 15:02 35.26512 107.43612 35353 ft 542 kts 102°
2026-05-07 15:03 35.25049 107.52654 35348 ft 542 kts 102°
2026-05-07 15:03 35.23581 107.61707 35345 ft 543 kts 102°
2026-05-07 15:04 35.21996 107.70718 35342 ft 541 kts 110°
2026-05-07 15:04 35.18858 107.78958 35346 ft 531 kts 128°
2026-05-07 15:05 35.14159 107.85678 35343 ft 521 kts 141°
2026-05-07 15:05 35.09060 107.91988 35344 ft 522 kts 140°
2026-05-07 15:06 35.03963 107.98314 35347 ft 523 kts 140°
2026-05-07 15:06 34.98859 108.04639 35349 ft 523 kts 141°
2026-05-07 15:07 34.93743 108.10949 35353 ft 523 kts 141°
2026-05-07 15:07 34.88619 108.17239 35354 ft 523 kts 141°
2026-05-07 15:08 34.83495 108.23524 35329 ft 523 kts 141°
2026-05-07 15:08 34.78373 108.29816 35340 ft 524 kts 141°
2026-05-07 15:09 34.73243 108.36103 35338 ft 524 kts 141°
2026-05-07 15:09 34.68101 108.42368 35346 ft 524 kts 141°
2026-05-07 15:10 34.62881 108.48506 35335 ft 517 kts 148°
2026-05-07 15:10 34.56854 108.52915 35332 ft 497 kts 166°
2026-05-07 15:11 34.50344 108.55210 35314 ft 484 kts 176°
2026-05-07 15:11 34.43784 108.57037 35318 ft 484 kts 176°
2026-05-07 15:12 34.37263 108.58870 35312 ft 484 kts 175°
2026-05-07 15:12 34.30699 108.60712 35294 ft 484 kts 176°
2026-05-07 15:13 34.24135 108.62550 35307 ft 484 kts 176°
2026-05-07 15:13 34.17576 108.64380 35325 ft 484 kts 176°
2026-05-07 15:14 34.11014 108.66237 35333 ft 487 kts 173°
2026-05-07 15:14 34.07803 108.67669 35339 ft 499 kts 162°
2026-05-07 15:14 34.04762 108.69785 35341 ft 511 kts 152°
2026-05-07 15:15 34.02010 108.72558 35325 ft 521 kts 141°
2026-05-07 15:15 33.99589 108.75830 35331 ft 525 kts 136°
2026-05-07 15:15 33.94838 108.82512 35332 ft 525 kts 136°
2026-05-07 15:16 33.90070 108.89190 35337 ft 526 kts 136°
2026-05-07 15:16 33.85305 108.95857 35344 ft 525 kts 136°
2026-05-07 15:17 33.80526 109.02509 35353 ft 526 kts 136°
2026-05-07 15:17 33.75735 109.09169 35359 ft 527 kts 136°
2026-05-07 15:18 33.70980 109.15783 35329 ft 526 kts 136°
2026-05-07 15:18 33.66183 109.22441 35343 ft 528 kts 136°
2026-05-07 15:19 33.61373 109.29099 35355 ft 528 kts 136°
2026-05-07 15:19 33.56556 109.35751 35353 ft 529 kts 136°
2026-05-07 15:20 33.51733 109.42411 35366 ft 529 kts 136°
2026-05-07 15:20 33.46834 109.48960 35352 ft 522 kts 143°
2026-05-07 15:21 33.40960 109.53728 35327 ft 502 kts 163°
2026-05-07 15:21 33.34490 109.56611 35324 ft 501 kts 163°
2026-05-07 15:22 33.28270 109.60487 35338 ft 507 kts 157°
2026-05-07 15:22 33.22168 109.64762 35319 ft 508 kts 157°
2026-05-07 15:23 33.16026 109.68900 35327 ft 506 kts 159°
2026-05-07 15:23 33.09859 109.72828 35298 ft 505 kts 159°
2026-05-07 15:24 33.03635 109.76744 35308 ft 506 kts 159°
2026-05-07 15:24 32.97421 109.80709 35301 ft 507 kts 159°
2026-05-07 15:25 32.91216 109.84695 35300 ft 507 kts 159°
2026-05-07 15:25 32.85004 109.88659 35278 ft 506 kts 159°
2026-05-07 15:26 32.78792 109.92616 35270 ft 507 kts 159°
2026-05-07 15:26 32.72565 109.96573 35290 ft 508 kts 159°
2026-05-07 15:27 32.66326 110.00529 35294 ft 508 kts 159°
2026-05-07 15:27 32.60088 110.04491 35296 ft 509 kts 159°
2026-05-07 15:28 32.54896 110.07778 35275 ft 509 kts 160°
2026-05-07 15:28 32.48652 110.11724 35286 ft 509 kts 160°
2026-05-07 15:29 32.42407 110.15672 35294 ft 509 kts 159°
2026-05-07 15:29 32.36158 110.19616 35299 ft 509 kts 159°
2026-05-07 15:30 32.29902 110.23549 35303 ft 509 kts 160°
2026-05-07 15:30 32.23650 110.27472 35306 ft 508 kts 160°
2026-05-07 15:31 32.17396 110.31392 35304 ft 509 kts 160°
2026-05-07 15:31 32.11145 110.35309 35319 ft 509 kts 160°
2026-05-07 15:32 32.04885 110.39231 35315 ft 510 kts 160°
2026-05-07 15:32 31.98613 110.43144 35299 ft 510 kts 160°
2026-05-07 15:33 31.92378 110.47027 35305 ft 511 kts 160°
2026-05-07 15:33 31.86096 110.50935 35324 ft 512 kts 159°
2026-05-07 15:34 31.79799 110.54844 35325 ft 511 kts 159°
2026-05-07 15:34 31.73504 110.58748 35337 ft 512 kts 160°
2026-05-07 15:35 31.67206 110.62649 35317 ft 512 kts 160°
2026-05-07 15:35 31.60891 110.66543 35319 ft 513 kts 160°
2026-05-07 15:36 31.54574 110.70439 35327 ft 514 kts 160°
2026-05-07 15:36 31.48248 110.74350 35329 ft 514 kts 160°
2026-05-07 15:37 31.41918 110.78256 35338 ft 515 kts 160°
2026-05-07 15:37 31.35582 110.82159 35319 ft 514 kts 160°
2026-05-07 15:38 31.29247 110.86055 35327 ft 515 kts 160°
2026-05-07 15:38 31.22900 110.89945 35332 ft 515 kts 160°
2026-05-07 15:39 31.16541 110.93823 35332 ft 516 kts 160°
2026-05-07 15:39 31.10169 110.97720 35307 ft 517 kts 160°
2026-05-07 15:40 31.03816 111.01606 35327 ft 515 kts 160°
2026-05-07 15:40 30.97464 111.05469 35333 ft 515 kts 160°
2026-05-07 15:41 30.91120 111.09324 35336 ft 514 kts 160°
2026-05-07 15:41 30.84775 111.13182 35326 ft 515 kts 160°
2026-05-07 15:42 30.78423 111.17031 35291 ft 515 kts 160°
2026-05-07 15:42 30.72255 111.21361 35290 ft 528 kts 146°
2026-05-07 15:43 30.69627 111.24394 35292 ft 538 kts 134°
2026-05-07 15:43 30.67483 111.27991 35280 ft 545 kts 122°
2026-05-07 15:43 30.65925 111.32022 35276 ft 550 kts 110°
2026-05-07 15:43 30.65023 111.36335 35275 ft 551 kts 98°
2026-05-07 15:44 30.64882 111.45207 35267 ft 549 kts 80°
2026-05-07 15:44 30.65858 111.53947 35256 ft 551 kts 84°
2026-05-07 15:45 30.66225 111.62907 35263 ft 553 kts 87°
2026-05-07 15:45 30.66431 111.71773 35267 ft 553 kts 86°
2026-05-07 15:46 30.67069 111.85151 35268 ft 553 kts 84°
2026-05-07 15:47 30.67585 111.94064 35275 ft 553 kts 85°
2026-05-07 15:47 30.68109 112.02975 35314 ft 553 kts 84°
2026-05-07 15:48 30.68748 112.11875 35297 ft 553 kts 83°
2026-05-07 15:48 30.69408 112.20768 35283 ft 552 kts 83°
2026-05-07 15:49 30.70031 112.29663 35282 ft 553 kts 84°
2026-05-07 15:49 30.70621 112.38566 35275 ft 553 kts 84°
2026-05-07 15:50 30.71206 112.47471 35274 ft 553 kts 84°
2026-05-07 15:50 30.71800 112.56372 35278 ft 552 kts 84°
2026-05-07 15:51 30.72393 112.65274 35277 ft 552 kts 84°
2026-05-07 15:51 30.72975 112.74179 35275 ft 553 kts 84°
2026-05-07 15:52 30.73541 112.83086 35274 ft 553 kts 84°
2026-05-07 15:52 30.74102 112.91991 35278 ft 552 kts 84°
2026-05-07 15:53 30.74663 113.00897 35277 ft 552 kts 84°
2026-05-07 15:53 30.75222 113.09800 35286 ft 552 kts 84°
2026-05-07 15:54 30.75722 113.18693 35264 ft 551 kts 86°
2026-05-07 15:54 30.75942 113.27612 35265 ft 552 kts 88°
2026-05-07 15:55 30.76040 113.36537 35262 ft 552 kts 88°
2026-05-07 15:55 30.76208 113.45459 35263 ft 552 kts 87°
2026-05-07 15:56 30.76426 113.54381 35260 ft 552 kts 87°
2026-05-07 15:56 30.76639 113.63298 35259 ft 552 kts 87°
2026-05-07 15:57 30.76828 113.72220 35256 ft 552 kts 88°
2026-05-07 15:57 30.76995 113.81145 35251 ft 552 kts 88°
2026-05-07 15:58 30.77163 113.90008 35255 ft 552 kts 87°
2026-05-07 15:58 30.77338 113.98939 35258 ft 552 kts 88°
2026-05-07 15:59 30.77585 114.07858 35254 ft 552 kts 85°
2026-05-07 15:59 30.78074 114.16755 35256 ft 550 kts 81°
2026-05-07 16:00 30.79890 114.25305 35275 ft 542 kts 65°
2026-05-07 16:00 30.82540 114.33505 35270 ft 542 kts 66°
2026-05-07 16:01 30.84104 114.42104 35257 ft 548 kts 88°
2026-05-07 16:01 30.83143 114.50852 35252 ft 545 kts 109°
2026-05-07 16:01 30.81763 114.54938 35248 ft 541 kts 120°
2026-05-07 16:02 30.79894 114.58707 35247 ft 537 kts 126°
2026-05-07 16:02 30.75977 114.66108 35234 ft 537 kts 126°
2026-05-07 16:03 30.72055 114.73508 35233 ft 538 kts 126°
2026-05-07 16:03 30.68135 114.80906 35227 ft 538 kts 126°
2026-05-07 16:04 30.64211 114.88307 35199 ft 538 kts 126°
2026-05-07 16:04 30.60273 114.95703 35207 ft 539 kts 126°
2026-05-07 16:05 30.56323 115.03107 35201 ft 539 kts 126°
2026-05-07 16:05 30.52382 115.10502 35222 ft 538 kts 126°
2026-05-07 16:06 30.48435 115.17865 35225 ft 537 kts 126°
2026-05-07 16:06 30.44488 115.25216 35227 ft 537 kts 126°
2026-05-07 16:07 30.40483 115.32519 35229 ft 536 kts 127°
2026-05-07 16:07 30.36366 115.39691 35244 ft 533 kts 128°
2026-05-07 16:08 30.32274 115.46775 35244 ft 532 kts 128°
2026-05-07 16:08 30.28195 115.53914 35245 ft 532 kts 128°
2026-05-07 16:09 30.24136 115.61051 35202 ft 531 kts 128°
2026-05-07 16:09 30.20067 115.68169 35212 ft 531 kts 128°
2026-05-07 16:10 30.15987 115.75280 35214 ft 531 kts 128°
2026-05-07 16:10 30.11910 115.82372 35214 ft 530 kts 128°
2026-05-07 16:11 30.07831 115.89464 35212 ft 530 kts 128°
2026-05-07 16:11 30.03761 115.96564 35204 ft 531 kts 128°
2026-05-07 16:12 29.99727 116.03699 35213 ft 531 kts 127°
2026-05-07 16:12 29.95704 116.10833 35218 ft 531 kts 128°
2026-05-07 16:13 29.91664 116.17950 35213 ft 530 kts 128°
2026-05-07 16:13 29.88292 116.23848 35224 ft 530 kts 128°
2026-05-07 16:14 29.84238 116.30937 35179 ft 530 kts 128°
2026-05-07 16:14 29.80192 116.38027 35193 ft 530 kts 128°
2026-05-07 16:15 29.76141 116.45109 35189 ft 529 kts 128°
2026-05-07 16:15 29.72082 116.52180 35192 ft 530 kts 128°
2026-05-07 16:16 29.68018 116.59250 35193 ft 530 kts 128°
2026-05-07 16:16 29.63959 116.66312 35187 ft 529 kts 128°
2026-05-07 16:17 29.59898 116.73366 35185 ft 529 kts 128°
2026-05-07 16:17 29.55722 116.80595 35179 ft 529 kts 128°
2026-05-07 16:18 29.51647 116.87626 35168 ft 529 kts 128°
2026-05-07 16:18 29.47574 116.94652 35166 ft 529 kts 128°
2026-05-07 16:19 29.43498 117.01683 35165 ft 529 kts 128°
2026-05-07 16:19 29.39488 117.08765 35158 ft 532 kts 121°
2026-05-07 16:19 29.38019 117.12673 35159 ft 537 kts 110°
2026-05-07 16:20 29.37184 117.16850 35160 ft 539 kts 98°
2026-05-07 16:20 29.37013 117.21138 35157 ft 539 kts 86°
2026-05-07 16:20 29.37504 117.25391 35150 ft 538 kts 75°
2026-05-07 16:20 29.38629 117.29457 35166 ft 534 kts 64°
2026-05-07 16:21 29.40080 117.33380 35157 ft 535 kts 64°
2026-05-07 16:21 29.42986 117.41242 35154 ft 536 kts 64°
2026-05-07 16:22 29.45893 117.49126 35154 ft 537 kts 64°
2026-05-07 16:22 29.48809 117.57021 35163 ft 537 kts 64°
2026-05-07 16:23 29.51698 117.64880 34588 ft 530 kts 64°
2026-05-07 16:23 29.53126 117.68772 34135 ft 528 kts 64°
2026-05-07 16:23 29.54551 117.72658 33660 ft 528 kts 65°
2026-05-07 16:23 29.55848 117.76603 33145 ft 530 kts 73°
2026-05-07 16:24 29.56457 117.80779 32644 ft 531 kts 84°
2026-05-07 16:24 29.56785 117.85007 32150 ft 532 kts 85°
2026-05-07 16:24 29.57096 117.89249 31668 ft 533 kts 85°
2026-05-07 16:24 29.57394 117.93491 31185 ft 534 kts 85°
2026-05-07 16:25 29.57689 117.97745 30723 ft 535 kts 85°
2026-05-07 16:25 29.57985 118.02003 30275 ft 535 kts 86°
2026-05-07 16:25 29.58282 118.06265 29759 ft 535 kts 85°
2026-05-07 16:25 29.58580 118.10471 29228 ft 536 kts 85°
2026-05-07 16:26 29.58878 118.14741 28697 ft 536 kts 85°
2026-05-07 16:26 29.59172 118.19005 28194 ft 536 kts 85°
2026-05-07 16:26 29.59462 118.23272 27691 ft 536 kts 85°
2026-05-07 16:26 29.59753 118.27536 27198 ft 535 kts 85°
2026-05-07 16:27 29.60255 118.31764 26714 ft 533 kts 75°
2026-05-07 16:27 29.61340 118.35830 26239 ft 532 kts 70°
2026-05-07 16:27 29.62491 118.39875 25765 ft 533 kts 70°
2026-05-07 16:27 29.63647 118.43917 25397 ft 533 kts 70°
2026-05-07 16:28 29.64808 118.47960 25053 ft 532 kts 70°
2026-05-07 16:28 29.65968 118.51999 24709 ft 532 kts 70°
2026-05-07 16:28 29.67127 118.56038 24379 ft 532 kts 70°
2026-05-07 16:28 29.68281 118.60071 24049 ft 531 kts 70°
2026-05-07 16:29 29.69428 118.64096 23718 ft 528 kts 71°
2026-05-07 16:29 29.70563 118.68095 23331 ft 525 kts 71°
2026-05-07 16:29 29.71690 118.72080 22947 ft 523 kts 71°
2026-05-07 16:29 29.72812 118.76045 22562 ft 519 kts 71°
2026-05-07 16:30 29.73924 118.79981 22181 ft 516 kts 71°
2026-05-07 16:30 29.75033 118.83896 21812 ft 513 kts 71°
2026-05-07 16:30 29.76134 118.87786 21446 ft 510 kts 71°
2026-05-07 16:30 29.77228 118.91652 21091 ft 507 kts 71°
2026-05-07 16:31 29.78314 118.95500 20729 ft 504 kts 71°
2026-05-07 16:31 29.79392 118.99324 20360 ft 501 kts 71°
2026-05-07 16:31 29.80459 119.03127 20009 ft 498 kts 71°
2026-05-07 16:31 29.81519 119.06912 19656 ft 496 kts 71°
2026-05-07 16:32 29.82575 119.10680 19314 ft 493 kts 71°
2026-05-07 16:32 29.83621 119.14424 18972 ft 490 kts 71°
2026-05-07 16:32 29.84660 119.18150 18638 ft 487 kts 71°
2026-05-07 16:32 29.85695 119.21859 18291 ft 485 kts 71°
2026-05-07 16:33 29.86724 119.25541 17906 ft 482 kts 71°
2026-05-07 16:33 29.87734 119.29159 17528 ft 479 kts 72°
2026-05-07 16:33 29.88764 119.32852 17150 ft 477 kts 72°
2026-05-07 16:33 29.89772 119.36471 16768 ft 473 kts 72°
2026-05-07 16:34 29.90775 119.40073 16406 ft 471 kts 71°
2026-05-07 16:34 29.91768 119.43660 16043 ft 469 kts 71°
2026-05-07 16:34 29.92741 119.47187 15685 ft 467 kts 72°
2026-05-07 16:34 29.93722 119.50741 15335 ft 464 kts 72°
2026-05-07 16:35 29.94697 119.54271 14987 ft 461 kts 71°
2026-05-07 16:35 29.95664 119.57778 14632 ft 455 kts 71°
2026-05-07 16:35 29.96609 119.61208 14289 ft 443 kts 71°
2026-05-07 16:35 29.97529 119.64547 14003 ft 431 kts 71°
2026-05-07 16:36 29.98424 119.67798 13716 ft 419 kts 72°
2026-05-07 16:36 29.99292 119.70964 13409 ft 409 kts 72°
2026-05-07 16:36 30.00140 119.74055 13103 ft 399 kts 72°
2026-05-07 16:36 30.00968 119.77072 12794 ft 390 kts 72°
2026-05-07 16:37 30.01779 119.80023 12458 ft 382 kts 72°
2026-05-07 16:37 30.02571 119.82906 12138 ft 373 kts 71°
2026-05-07 16:37 30.03346 119.85735 11820 ft 366 kts 72°
2026-05-07 16:37 30.04103 119.88509 11510 ft 359 kts 72°
2026-05-07 16:38 30.04844 119.91233 11198 ft 353 kts 72°
2026-05-07 16:38 30.05569 119.93897 10837 ft 343 kts 71°
2026-05-07 16:38 30.06273 119.96484 10490 ft 334 kts 71°
2026-05-07 16:38 30.06962 119.99008 10144 ft 325 kts 72°
2026-05-07 16:39 30.07634 120.01472 9693 ft 317 kts 72°
2026-05-07 16:39 30.08282 120.03857 9232 ft 306 kts 72°
2026-05-07 16:39 30.08909 120.06162 8768 ft 296 kts 71°
2026-05-07 16:39 30.09497 120.08404 8293 ft 287 kts 69°
2026-05-07 16:40 30.10261 120.10497 7796 ft 279 kts 60°
2026-05-07 16:40 30.11156 120.12451 7313 ft 272 kts 60°
2026-05-07 16:40 30.12032 120.14362 6801 ft 267 kts 61°
2026-05-07 16:40 30.12883 120.16264 6186 ft 265 kts 59°
2026-05-07 16:41 30.13723 120.18150 5556 ft 263 kts 60°
2026-05-07 16:41 30.14547 120.19998 4937 ft 251 kts 60°
2026-05-07 16:41 30.15313 120.21716 4316 ft 237 kts 61°
2026-05-07 16:41 30.16049 120.23365 3697 ft 225 kts 60°
2026-05-07 16:42 30.16747 120.24932 3152 ft 213 kts 60°
2026-05-07 16:42 30.17399 120.26396 2802 ft 196 kts 60°
2026-05-07 16:42 30.18005 120.27756 2531 ft 185 kts 60°
2026-05-07 16:42 30.18575 120.29036 2306 ft 173 kts 59°
2026-05-07 16:43 30.19103 120.30225 2074 ft 159 kts 58°
2026-05-07 16:43 30.19587 120.31313 1871 ft 144 kts 58°
2026-05-07 16:43 30.20030 120.32310 1673 ft 136 kts 57°
2026-05-07 16:43 30.20457 120.33267 1480 ft 133 kts 57°
2026-05-07 16:44 30.20879 120.34213 1311 ft 131 kts 57°
2026-05-07 16:44 30.21295 120.35149 1139 ft 131 kts 59°
2026-05-07 16:44 30.21713 120.36091 961 ft 132 kts 58°
2026-05-07 16:44 30.22127 120.37033 770 ft 131 kts 58°
2026-05-07 16:45 30.22547 120.37972 586 ft 131 kts 58°
2026-05-07 16:45 30.22979 120.38913 397 ft 132 kts 62°
2026-05-07 16:45 30.23389 120.39874 263 ft 133 kts 60°
2026-05-07 16:45 30.23816 120.40820 89 ft 133 kts 62°
2026-05-07 16:46 30.24213 120.41710 31 ft 107 kts 65°
2026-05-07 16:46 30.24470 120.42297 31 ft 57 kts 63°
2026-05-07 16:46 30.24554 120.42569 29 ft 24 kts 84°
2026-05-07 16:46 30.24555 120.42719 31 ft 17 kts 88°
2026-05-07 16:47 30.24522 120.42779 32 ft 8 kts 173°
2026-05-07 16:47 30.24481 120.42758 31 ft 6 kts 217°
2026-05-07 16:47 30.24402 120.42774 32 ft 22 kts 158°
2026-05-07 16:47 30.24298 120.42796 32 ft 10 kts 193°
2026-05-07 16:48 30.24228 120.42821 31 ft 14 kts 153°
2026-05-07 16:48 30.24154 120.42847 32 ft 9 kts 206°
2026-05-07 16:48 30.24128 120.42815 32 ft 2 kts 233°
2026-05-07 16:48 30.24123 120.42807 32 ft 1 kts 234°
2026-05-07 16:49 30.24121 120.42803 32 ft 0 kts 234°